Time,TemperatureF,DewpointF,PressureIn,WindDirection,WindDirectionDegrees,WindSpeedMPH,WindSpeedGustMPH,Humidity,HourlyPrecipIn,Conditions,Clouds,dailyrainin,SoftwareType,DateUTC
2014-12-22 00:04:00,28.4,26.1,30.29,ENE,76,3.0,7.0,91,0.00,,,0.00,meteohub,2014-12-22 05:04:00,
2014-12-22 00:09:00,28.4,26.1,30.28,NE,52,2.0,7.0,91,0.00,,,0.00,meteohub,2014-12-22 05:09:00,
2014-12-22 00:14:00,28.6,26.2,30.28,ENE,66,5.0,7.0,91,0.00,,,0.00,meteohub,2014-12-22 05:14:00,
2014-12-22 00:19:00,28.6,26.2,30.28,ENE,68,3.0,6.0,91,0.00,,,0.00,meteohub,2014-12-22 05:19:00,
2014-12-22 00:24:00,28.4,26.1,30.28,ENE,77,5.0,6.0,91,0.00,,,0.00,meteohub,2014-12-22 05:24:00,
2014-12-22 00:29:00,28.2,25.9,30.28,NE,56,3.0,7.0,91,0.00,,,0.00,meteohub,2014-12-22 05:29:00,
2014-12-22 00:34:00,28.2,25.9,30.28,NE,53,3.0,7.0,91,0.00,,,0.00,meteohub,2014-12-22 05:34:00,
2014-12-22 00:39:00,28.2,25.9,30.27,ENE,62,3.0,7.0,91,0.00,,,0.00,meteohub,2014-12-22 05:39:00,
2014-12-22 00:44:00,28.0,25.7,30.27,NE,56,3.0,5.0,91,0.00,,,0.00,meteohub,2014-12-22 05:44:00,
2014-12-22 00:49:00,28.2,25.9,30.27,ENE,69,3.0,5.0,91,0.00,,,0.00,meteohub,2014-12-22 05:49:00,
2014-12-22 00:54:00,28.2,26.2,30.27,ENE,63,4.0,5.0,92,0.00,,,0.00,meteohub,2014-12-22 05:54:00,
2014-12-22 00:59:00,28.0,25.7,30.26,ENE,72,4.0,7.0,91,0.00,,,0.00,meteohub,2014-12-22 05:59:00,
2014-12-22 01:04:00,28.0,26.1,30.26,NE,53,5.0,7.0,92,0.00,,,0.00,meteohub,2014-12-22 06:04:00,
2014-12-22 01:09:00,28.0,26.1,30.26,ENE,67,5.0,7.0,92,0.00,,,0.00,meteohub,2014-12-22 06:09:00,
2014-12-22 01:14:00,28.0,25.7,30.25,ENE,72,5.0,7.0,91,0.00,,,0.00,meteohub,2014-12-22 06:14:00,
2014-12-22 01:19:00,27.9,25.5,30.25,ENE,70,4.0,7.0,91,0.00,,,0.00,meteohub,2014-12-22 06:19:00,
2014-12-22 01:24:00,27.7,25.7,30.25,NE,46,2.0,6.0,92,0.00,,,0.00,meteohub,2014-12-22 06:24:00,
2014-12-22 01:29:00,27.9,25.9,30.25,ENE,63,3.0,6.0,92,0.00,,,0.00,meteohub,2014-12-22 06:29:00,
2014-12-22 01:34:00,27.7,25.7,30.25,NE,53,2.0,6.0,92,0.00,,,0.00,meteohub,2014-12-22 06:34:00,
2014-12-22 01:39:00,27.7,25.7,30.24,NE,44,1.0,6.0,92,0.00,,,0.00,meteohub,2014-12-22 06:39:00,
2014-12-22 01:44:00,27.3,25.3,30.25,NE,42,0.0,5.0,92,0.00,,,0.00,meteohub,2014-12-22 06:44:00,
2014-12-22 01:49:00,27.1,25.2,30.25,NNE,12,0.0,3.0,92,0.00,,,0.00,meteohub,2014-12-22 06:49:00,
2014-12-22 01:54:00,27.1,25.2,30.25,NNW,345,0.0,3.0,92,0.00,,,0.00,meteohub,2014-12-22 06:54:00,
2014-12-22 01:59:00,27.1,25.2,30.25,NNW,344,1.0,3.0,92,0.00,,,0.00,meteohub,2014-12-22 06:59:00,
2014-12-22 02:04:00,27.1,25.2,30.25,NNW,344,2.0,2.0,92,0.00,,,0.00,meteohub,2014-12-22 07:04:00,
2014-12-22 02:09:00,27.1,25.3,30.25,North,359,2.0,2.0,93,0.00,,,0.00,meteohub,2014-12-22 07:09:00,
2014-12-22 02:14:00,27.1,25.3,30.24,North,11,1.0,2.0,93,0.00,,,0.00,meteohub,2014-12-22 07:14:00,
2014-12-22 02:19:00,27.1,25.3,30.25,NNE,15,1.0,2.0,93,0.00,,,0.00,meteohub,2014-12-22 07:19:00,
2014-12-22 02:24:00,27.1,25.3,30.24,NNE,23,2.0,2.0,93,0.00,,,0.00,meteohub,2014-12-22 07:24:00,
2014-12-22 02:29:00,27.1,25.3,30.24,NNE,23,1.0,2.0,93,0.00,,,0.00,meteohub,2014-12-22 07:29:00,
2014-12-22 02:34:00,27.1,25.3,30.24,NNE,27,2.0,3.0,93,0.00,,,0.00,meteohub,2014-12-22 07:34:00,
2014-12-22 02:39:00,27.1,25.3,30.24,NE,37,3.0,3.0,93,0.00,,,0.00,meteohub,2014-12-22 07:39:00,
2014-12-22 02:44:00,27.1,25.3,30.24,NE,40,3.0,4.0,93,0.00,,,0.00,meteohub,2014-12-22 07:44:00,
2014-12-22 02:49:00,27.1,25.3,30.24,NNE,16,2.0,4.0,93,0.00,,,0.00,meteohub,2014-12-22 07:49:00,
2014-12-22 02:54:00,27.0,25.2,30.24,NE,35,0.0,4.0,93,0.00,,,0.00,meteohub,2014-12-22 07:54:00,
2014-12-22 02:59:00,27.0,25.2,30.24,NE,41,2.0,4.0,93,0.00,,,0.00,meteohub,2014-12-22 07:59:00,
2014-12-22 03:04:00,27.0,25.2,30.24,NNE,30,1.0,4.0,93,0.00,,,0.00,meteohub,2014-12-22 08:04:00,
2014-12-22 03:09:00,27.0,25.2,30.23,NE,37,3.0,4.0,93,0.00,,,0.00,meteohub,2014-12-22 08:09:00,
2014-12-22 03:14:00,27.0,25.2,30.23,NE,47,1.0,5.0,93,0.00,,,0.00,meteohub,2014-12-22 08:14:00,
2014-12-22 03:19:00,27.1,25.3,30.24,NE,39,2.0,5.0,93,0.00,,,0.00,meteohub,2014-12-22 08:19:00,
2014-12-22 03:24:00,27.0,25.2,30.23,NE,40,3.0,5.0,93,0.00,,,0.00,meteohub,2014-12-22 08:24:00,
2014-12-22 03:29:00,27.0,25.2,30.23,NE,44,3.0,4.0,93,0.00,,,0.00,meteohub,2014-12-22 08:29:00,
2014-12-22 03:34:00,27.0,25.2,30.23,NNE,27,2.0,3.0,93,0.00,,,0.00,meteohub,2014-12-22 08:34:00,
2014-12-22 03:39:00,27.0,25.2,30.22,NE,49,3.0,5.0,93,0.00,,,0.00,meteohub,2014-12-22 08:39:00,
2014-12-22 03:44:00,26.8,25.0,30.22,NE,46,3.0,5.0,93,0.00,,,0.00,meteohub,2014-12-22 08:44:00,
2014-12-22 03:49:00,26.8,25.0,30.22,NE,43,5.0,5.0,93,0.00,,,0.00,meteohub,2014-12-22 08:49:00,
2014-12-22 03:54:00,26.8,25.0,30.22,NE,41,3.0,5.0,93,0.00,,,0.00,meteohub,2014-12-22 08:54:00,
2014-12-22 03:59:00,26.4,24.6,30.22,NE,42,2.0,5.0,93,0.00,,,0.00,meteohub,2014-12-22 08:59:00,
2014-12-22 04:04:00,26.6,24.8,30.22,NE,42,2.0,5.0,93,0.00,,,0.00,meteohub,2014-12-22 09:04:00,
2014-12-22 04:09:00,26.6,24.8,30.22,NE,42,2.0,4.0,93,0.00,,,0.00,meteohub,2014-12-22 09:09:00,
2014-12-22 04:14:00,26.8,25.0,30.22,NE,39,3.0,4.0,93,0.00,,,0.00,meteohub,2014-12-22 09:14:00,
2014-12-22 04:19:00,27.0,25.2,30.22,NE,35,2.0,4.0,93,0.00,,,0.00,meteohub,2014-12-22 09:19:00,
2014-12-22 04:24:00,27.0,25.2,30.22,NE,39,2.0,3.0,93,0.00,,,0.00,meteohub,2014-12-22 09:24:00,
2014-12-22 04:29:00,27.0,25.2,30.21,NE,40,3.0,4.0,93,0.00,,,0.00,meteohub,2014-12-22 09:29:00,
2014-12-22 04:34:00,27.1,25.3,30.21,NNE,16,1.0,4.0,93,0.00,,,0.00,meteohub,2014-12-22 09:34:00,
2014-12-22 04:39:00,27.1,25.3,30.21,North,1,1.0,4.0,93,0.00,,,0.00,meteohub,2014-12-22 09:39:00,
2014-12-22 04:44:00,27.1,25.3,30.21,NE,44,2.0,4.0,93,0.00,,,0.00,meteohub,2014-12-22 09:44:00,
2014-12-22 04:49:00,27.0,25.2,30.21,NE,39,2.0,4.0,93,0.00,,,0.00,meteohub,2014-12-22 09:49:00,
2014-12-22 04:54:00,27.0,25.2,30.21,NE,44,3.0,5.0,93,0.00,,,0.00,meteohub,2014-12-22 09:54:00,
2014-12-22 04:59:00,27.1,25.3,30.20,NE,47,4.0,5.0,93,0.00,,,0.00,meteohub,2014-12-22 09:59:00,
2014-12-22 05:04:00,27.1,25.3,30.20,NE,43,5.0,6.0,93,0.00,,,0.00,meteohub,2014-12-22 10:04:00,
2014-12-22 05:09:00,27.3,25.5,30.20,NNE,33,3.0,6.0,93,0.00,,,0.00,meteohub,2014-12-22 10:09:00,
2014-12-22 05:14:00,27.3,25.9,30.20,NE,41,4.0,7.0,94,0.00,,,0.00,meteohub,2014-12-22 10:14:00,
2014-12-22 05:19:00,27.3,25.9,30.20,North,8,3.0,7.0,94,0.00,,,0.00,meteohub,2014-12-22 10:19:00,
2014-12-22 05:24:00,27.3,25.9,30.19,NE,51,3.0,6.0,94,0.00,,,0.00,meteohub,2014-12-22 10:24:00,
2014-12-22 05:29:00,27.5,26.1,30.20,SW,219,0.0,6.0,94,0.00,,,0.00,meteohub,2014-12-22 10:29:00,
2014-12-22 05:34:00,27.7,26.2,30.20,NE,39,2.0,5.0,94,0.00,,,0.00,meteohub,2014-12-22 10:34:00,
2014-12-22 05:39:00,27.7,26.2,30.21,NE,51,2.0,5.0,94,0.00,,,0.00,meteohub,2014-12-22 10:39:00,
2014-12-22 05:44:00,27.7,26.2,30.20,NE,39,1.0,3.0,94,0.00,,,0.00,meteohub,2014-12-22 10:44:00,
2014-12-22 05:49:00,27.9,26.4,30.20,NE,46,3.0,3.0,94,0.00,,,0.00,meteohub,2014-12-22 10:49:00,
2014-12-22 05:54:00,27.9,26.4,30.20,NE,37,3.0,3.0,94,0.00,,,0.00,meteohub,2014-12-22 10:54:00,
2014-12-22 05:59:00,28.0,26.6,30.20,NNE,13,1.0,3.0,94,0.00,,,0.00,meteohub,2014-12-22 10:59:00,
2014-12-22 06:04:00,28.0,26.6,30.20,NE,42,4.0,4.0,94,0.00,,,0.00,meteohub,2014-12-22 11:04:00,
2014-12-22 06:09:00,28.0,26.6,30.20,North,1,1.0,4.0,94,0.00,,,0.00,meteohub,2014-12-22 11:09:00,
2014-12-22 06:14:00,28.2,26.8,30.20,NE,46,3.0,4.0,94,0.00,,,0.00,meteohub,2014-12-22 11:14:00,
2014-12-22 06:19:00,28.2,26.8,30.20,NE,40,2.0,4.0,94,0.00,,,0.00,meteohub,2014-12-22 11:19:00,
2014-12-22 06:24:00,28.2,26.8,30.20,NNE,30,3.0,4.0,94,0.00,,,0.00,meteohub,2014-12-22 11:24:00,
2014-12-22 06:29:00,28.4,27.0,30.20,NE,40,2.0,4.0,94,0.00,,,0.00,meteohub,2014-12-22 11:29:00,
2014-12-22 06:34:00,28.6,27.1,30.20,NE,41,4.0,4.0,94,0.00,,,0.00,meteohub,2014-12-22 11:34:00,
2014-12-22 06:39:00,28.6,27.1,30.20,NE,42,2.0,4.0,94,0.00,,,0.00,meteohub,2014-12-22 11:39:00,
2014-12-22 06:44:00,28.8,27.3,30.20,NE,43,2.0,4.0,94,0.00,,,0.00,meteohub,2014-12-22 11:44:00,
2014-12-22 06:49:00,28.9,27.5,30.20,NNE,15,2.0,4.0,94,0.00,,,0.00,meteohub,2014-12-22 11:49:00,
2014-12-22 06:55:00,28.9,27.5,30.19,North,5,1.0,4.0,94,0.00,,,0.00,meteohub,2014-12-22 11:55:00,
2014-12-22 07:00:00,29.1,27.7,30.20,NE,46,2.0,4.0,94,0.00,,,0.00,meteohub,2014-12-22 12:00:00,
2014-12-22 07:05:00,29.3,27.9,30.20,NE,40,3.0,4.0,94,0.00,,,0.00,meteohub,2014-12-22 12:05:00,
2014-12-22 07:10:00,29.5,28.0,30.19,NE,41,5.0,5.0,94,0.00,,,0.00,meteohub,2014-12-22 12:10:00,
2014-12-22 07:15:00,29.7,28.2,30.20,NNE,33,1.0,5.0,94,0.00,,,0.00,meteohub,2014-12-22 12:15:00,
2014-12-22 07:20:00,29.7,28.2,30.20,NE,36,2.0,6.0,94,0.00,,,0.00,meteohub,2014-12-22 12:20:00,
2014-12-22 07:25:00,29.8,28.4,30.20,NE,45,4.0,6.0,94,0.00,,,0.00,meteohub,2014-12-22 12:25:00,
2014-12-22 07:30:00,30.0,28.6,30.20,NE,44,0.0,4.0,94,0.00,,,0.00,meteohub,2014-12-22 12:30:00,
2014-12-22 07:35:00,30.0,28.2,30.20,NE,53,2.0,4.0,93,0.00,,,0.00,meteohub,2014-12-22 12:35:00,
2014-12-22 07:40:00,30.2,28.4,30.20,NE,41,3.0,5.0,93,0.00,,,0.00,meteohub,2014-12-22 12:40:00,
2014-12-22 07:45:00,30.4,28.6,30.20,NE,51,3.0,4.0,93,0.00,,,0.00,meteohub,2014-12-22 12:45:00,
2014-12-22 07:50:00,30.4,28.6,30.19,NE,37,2.0,4.0,93,0.00,,,0.00,meteohub,2014-12-22 12:50:00,
2014-12-22 07:55:00,30.6,28.8,30.19,NNE,30,0.0,4.0,93,0.00,,,0.00,meteohub,2014-12-22 12:55:00,
2014-12-22 08:00:00,30.6,28.8,30.19,NNE,33,0.0,3.0,93,0.00,,,0.00,meteohub,2014-12-22 13:00:00,
2014-12-22 08:05:00,30.6,28.8,30.19,NE,53,0.0,3.0,93,0.00,,,0.00,meteohub,2014-12-22 13:05:00,
2014-12-22 08:10:00,30.7,28.9,30.19,NE,49,0.0,1.0,93,0.00,,,0.00,meteohub,2014-12-22 13:10:00,
2014-12-22 08:15:00,30.9,29.1,30.19,NE,51,5.0,5.0,93,0.00,,,0.00,meteohub,2014-12-22 13:15:00,
2014-12-22 08:20:00,31.1,29.3,30.19,NE,53,2.0,3.0,93,0.00,,,0.00,meteohub,2014-12-22 13:20:00,
2014-12-22 08:25:00,31.3,29.5,30.19,NNE,33,3.0,5.0,93,0.00,,,0.00,meteohub,2014-12-22 13:25:00,
2014-12-22 08:30:00,31.5,29.7,30.19,ENE,67,5.0,5.0,93,0.00,,,0.00,meteohub,2014-12-22 13:30:00,
2014-12-22 08:35:00,31.6,29.8,30.19,ENE,62,2.0,5.0,93,0.00,,,0.00,meteohub,2014-12-22 13:35:00,
2014-12-22 08:40:00,31.8,29.8,30.19,NE,49,2.0,5.0,92,0.00,,,0.00,meteohub,2014-12-22 13:40:00,
2014-12-22 08:45:00,32.2,30.2,30.19,NNE,20,1.0,5.0,92,0.00,,,0.00,meteohub,2014-12-22 13:45:00,
2014-12-22 08:50:00,32.2,30.2,30.18,NE,49,1.0,5.0,92,0.00,,,0.00,meteohub,2014-12-22 13:50:00,
2014-12-22 08:55:00,32.2,30.2,30.18,NE,46,3.0,5.0,92,0.00,,,0.00,meteohub,2014-12-22 13:55:00,
2014-12-22 09:00:00,32.4,30.4,30.18,NE,39,2.0,4.0,92,0.00,,,0.00,meteohub,2014-12-22 14:00:00,
2014-12-22 09:05:00,32.5,30.6,30.19,WSW,250,2.0,7.0,92,0.00,,,0.00,meteohub,2014-12-22 14:05:00,
2014-12-22 09:10:00,33.3,31.1,30.19,WSW,252,0.0,7.0,92,0.00,,,0.00,meteohub,2014-12-22 14:10:00,
2014-12-22 09:15:00,33.6,31.5,30.18,NNW,347,0.0,7.0,92,0.00,,,0.00,meteohub,2014-12-22 14:15:00,
2014-12-22 09:20:00,34.2,31.8,30.18,NE,44,3.0,3.0,91,0.00,,,0.00,meteohub,2014-12-22 14:20:00,
2014-12-22 09:25:00,34.7,32.4,30.18,East,84,3.0,3.0,91,0.00,,,0.00,meteohub,2014-12-22 14:25:00,
2014-12-22 09:30:00,34.9,32.5,30.18,North,6,0.0,4.0,91,0.00,,,0.00,meteohub,2014-12-22 14:30:00,
2014-12-22 09:35:00,35.2,32.5,30.18,ENE,75,2.0,7.0,90,0.00,,,0.00,meteohub,2014-12-22 14:35:00,
2014-12-22 09:40:00,35.2,32.4,30.18,East,79,8.0,8.0,89,0.00,,,0.00,meteohub,2014-12-22 14:40:00,
2014-12-22 09:45:00,35.2,32.4,30.18,East,79,5.0,7.0,89,0.00,,,0.00,meteohub,2014-12-22 14:45:00,
2014-12-22 09:50:00,35.2,32.0,30.18,ENE,78,3.0,8.0,88,0.00,,,0.00,meteohub,2014-12-22 14:50:00,
2014-12-22 09:55:00,35.4,32.2,30.18,ENE,72,4.0,8.0,88,0.00,,,0.00,meteohub,2014-12-22 14:55:00,
2014-12-22 10:00:00,35.4,32.2,30.18,ENE,75,3.0,8.0,88,0.00,,,0.00,meteohub,2014-12-22 15:00:00,
2014-12-22 10:05:00,35.6,32.4,30.18,ENE,72,4.0,7.0,88,0.00,,,0.00,meteohub,2014-12-22 15:05:00,
2014-12-22 10:10:00,35.8,32.5,30.18,ENE,78,2.0,7.0,88,0.00,,,0.00,meteohub,2014-12-22 15:10:00,
2014-12-22 10:15:00,36.1,32.7,30.17,ENE,75,7.0,7.0,87,0.00,,,0.00,meteohub,2014-12-22 15:15:00,
2014-12-22 10:20:00,36.3,32.9,30.18,ENE,75,3.0,7.0,87,0.00,,,0.00,meteohub,2014-12-22 15:20:00,
2014-12-22 10:25:00,36.7,33.3,30.18,East,82,4.0,8.0,87,0.00,,,0.00,meteohub,2014-12-22 15:25:00,
2014-12-22 10:30:00,36.7,32.9,30.18,East,84,6.0,8.0,86,0.00,,,0.00,meteohub,2014-12-22 15:30:00,
2014-12-22 10:35:00,36.9,33.1,30.18,ENE,67,2.0,8.0,86,0.00,,,0.00,meteohub,2014-12-22 15:35:00,
2014-12-22 10:40:00,37.2,33.8,30.18,East,100,4.0,8.0,87,0.00,,,0.00,meteohub,2014-12-22 15:40:00,
2014-12-22 10:45:00,37.8,34.0,30.17,East,95,6.0,8.0,86,0.00,,,0.00,meteohub,2014-12-22 15:45:00,
2014-12-22 10:50:00,37.8,33.6,30.16,ENE,73,7.0,10.0,85,0.00,,,0.00,meteohub,2014-12-22 15:50:00,
2014-12-22 10:55:00,38.1,34.0,30.16,East,79,4.0,10.0,85,0.00,,,0.00,meteohub,2014-12-22 15:55:00,
2014-12-22 11:00:00,38.7,34.5,30.16,ENE,65,7.0,9.0,85,0.00,,,0.00,meteohub,2014-12-22 16:00:00,
2014-12-22 11:05:00,39.2,35.1,30.16,ENE,69,6.0,9.0,85,0.00,,,0.00,meteohub,2014-12-22 16:05:00,
2014-12-22 11:10:00,39.7,35.2,30.15,ENE,77,4.0,9.0,84,0.00,,,0.00,meteohub,2014-12-22 16:10:00,
2014-12-22 11:15:00,40.3,35.8,30.15,ENE,66,4.0,8.0,84,0.00,,,0.00,meteohub,2014-12-22 16:15:00,
2014-12-22 11:20:00,40.8,36.1,30.14,ENE,66,4.0,7.0,83,0.00,,,0.00,meteohub,2014-12-22 16:20:00,
2014-12-22 11:25:00,41.7,36.9,30.14,East,88,6.0,7.0,83,0.00,,,0.00,meteohub,2014-12-22 16:25:00,
2014-12-22 11:30:00,42.3,36.9,30.14,ENE,66,5.0,7.0,81,0.00,,,0.00,meteohub,2014-12-22 16:30:00,
2014-12-22 11:35:00,42.6,37.2,30.13,NE,48,2.0,7.0,81,0.00,,,0.00,meteohub,2014-12-22 16:35:00,
2014-12-22 11:40:00,42.8,37.0,30.13,East,93,2.0,7.0,80,0.00,,,0.00,meteohub,2014-12-22 16:40:00,
2014-12-22 11:45:00,43.3,37.6,30.12,NE,49,3.0,6.0,80,0.00,,,0.00,meteohub,2014-12-22 16:45:00,
2014-12-22 11:50:00,43.9,38.1,30.12,East,93,5.0,5.0,80,0.00,,,0.00,meteohub,2014-12-22 16:50:00,
2014-12-22 11:55:00,44.2,38.1,30.12,East,87,5.0,6.0,79,0.00,,,0.00,meteohub,2014-12-22 16:55:00,
2014-12-22 12:00:00,45.0,38.5,30.11,East,82,3.0,6.0,78,0.00,,,0.00,meteohub,2014-12-22 17:00:00,
2014-12-22 12:05:00,45.1,38.3,30.11,East,91,5.0,6.0,77,0.00,,,0.00,meteohub,2014-12-22 17:05:00,
2014-12-22 12:10:00,45.1,38.3,30.11,East,89,3.0,8.0,77,0.00,,,0.00,meteohub,2014-12-22 17:10:00,
2014-12-22 12:15:00,45.1,38.3,30.11,East,93,4.0,8.0,77,0.00,,,0.00,meteohub,2014-12-22 17:15:00,
2014-12-22 12:20:00,45.5,39.0,30.10,ENE,76,3.0,8.0,78,0.00,,,0.00,meteohub,2014-12-22 17:20:00,
2014-12-22 12:25:00,46.2,39.4,30.10,East,99,4.0,7.0,77,0.00,,,0.00,meteohub,2014-12-22 17:25:00,
2014-12-22 12:30:00,46.6,39.7,30.10,East,91,4.0,7.0,77,0.00,,,0.00,meteohub,2014-12-22 17:30:00,
2014-12-22 12:35:00,46.9,39.7,30.09,ESE,108,5.0,9.0,76,0.00,,,0.00,meteohub,2014-12-22 17:35:00,
2014-12-22 12:40:00,47.5,40.3,30.09,ENE,60,3.0,9.0,76,0.00,,,0.00,meteohub,2014-12-22 17:40:00,
2014-12-22 12:45:00,47.5,39.9,30.09,ENE,66,3.0,7.0,75,0.00,,,0.00,meteohub,2014-12-22 17:45:00,
2014-12-22 12:50:00,47.7,40.1,30.09,East,80,5.0,6.0,75,0.00,,,0.00,meteohub,2014-12-22 17:50:00,
2014-12-22 12:55:00,48.2,40.6,30.08,ENE,72,6.0,6.0,75,0.00,,,0.00,meteohub,2014-12-22 17:55:00,
2014-12-22 13:00:00,48.2,40.3,30.07,NE,53,4.0,9.0,74,0.00,,,0.00,meteohub,2014-12-22 18:00:00,
2014-12-22 13:05:00,47.8,40.3,30.07,East,94,5.0,12.0,75,0.00,,,0.00,meteohub,2014-12-22 18:05:00,
2014-12-22 13:10:00,47.8,40.3,30.06,ENE,65,5.0,12.0,75,0.00,,,0.00,meteohub,2014-12-22 18:10:00,
2014-12-22 13:15:00,47.8,40.6,30.06,East,82,7.0,12.0,76,0.00,,,0.00,meteohub,2014-12-22 18:15:00,
2014-12-22 13:20:00,47.8,40.6,30.06,ENE,70,4.0,12.0,76,0.00,,,0.00,meteohub,2014-12-22 18:20:00,
2014-12-22 13:25:00,48.0,40.8,30.06,ESE,105,5.0,12.0,76,0.00,,,0.00,meteohub,2014-12-22 18:25:00,
2014-12-22 13:30:00,48.0,40.8,30.05,East,84,3.0,9.0,76,0.00,,,0.00,meteohub,2014-12-22 18:30:00,
2014-12-22 13:35:00,47.8,40.6,30.05,ENE,63,5.0,9.0,76,0.00,,,0.00,meteohub,2014-12-22 18:35:00,